Location: Eppenbrunn
(49.1158°N, 7.5601°E)
Time: 02:42:45
(UTC+00:00)

STARLINK-2732 - Pass Details

Date: 01 August 2021
Orbit: 546 x 548 km, 53.1° (Epoch: 28 September)

Event Time Altitude Azimuth Distance (km) Brightness Sun altitude
Rises 19:38:35 0° 290° (WNW) 2,721 9.1 -5.0°
Reaches altitude 10° 19:41:12 10° 275° (W) 1,823 7.4 -5.3°
Maximum altitude 19:44:22 21° 225° (SW) 1,243 5.5 -5.7°
Drops below altitude 10° 19:47:32 10° 175° (S) 1,813 5.9 -6.1°
Enters shadow 19:49:22 - 162° (SSE) 2,424 6.4 -6.4°
